Year,Month,Day,Hour,Minute,Value (Times are PST for temperature in C)
2011,07,23,00,00,10.30
2011,07,23,00,01,10.30
2011,07,23,00,02,10.20
2011,07,23,00,03,10.20
2011,07,23,00,04,10.20
2011,07,23,00,05,10.20
2011,07,23,00,06,10.20
2011,07,23,00,07,10.20
2011,07,23,00,08,10.20
2011,07,23,00,09,10.10
2011,07,23,00,10,10.10
2011,07,23,00,11,10.10
2011,07,23,00,12,10.10
2011,07,23,00,13,10.10
2011,07,23,00,14,10.10
2011,07,23,00,15,10.10
2011,07,23,00,16,10.10
2011,07,23,00,17,10.10
2011,07,23,00,18,10.10
2011,07,23,00,19,10.10
2011,07,23,00,20,10.10
2011,07,23,00,21,10.10
2011,07,23,00,22,10.10
2011,07,23,00,23,10.10
2011,07,23,00,24,10.10
2011,07,23,00,25,10.10
2011,07,23,00,26,10.10
2011,07,23,00,27,10.10
2011,07,23,00,28,10.10
2011,07,23,00,29,10.10
2011,07,23,00,30,10.10
2011,07,23,00,31,10.10
2011,07,23,00,32,10.10
2011,07,23,00,33,10.10
2011,07,23,00,34,10.10
2011,07,23,00,35,10.10
2011,07,23,00,36,10.10
2011,07,23,00,37,10.10
2011,07,23,00,38,10.10
2011,07,23,00,39,10.10
2011,07,23,00,40,10.10
2011,07,23,00,41,10.10
2011,07,23,00,42,10.10
2011,07,23,00,43,10.10
2011,07,23,00,44,10.10
2011,07,23,00,45,10.00
2011,07,23,00,46,9.90
2011,07,23,00,47,9.90
2011,07,23,00,48,9.90
2011,07,23,00,49,9.80
2011,07,23,00,50,9.80
2011,07,23,00,51,9.70
2011,07,23,00,52,9.70
2011,07,23,00,53,9.70
2011,07,23,00,54,9.70
2011,07,23,00,55,9.70
2011,07,23,00,56,9.60
2011,07,23,00,57,9.60
2011,07,23,00,58,9.60
2011,07,23,00,59,9.60
2011,07,23,01,00,9.50
2011,07,23,01,01,9.50
2011,07,23,01,02,9.50
2011,07,23,01,03,9.50
2011,07,23,01,04,9.50
2011,07,23,01,05,9.50
2011,07,23,01,06,9.40
2011,07,23,01,07,9.40
2011,07,23,01,08,9.40
2011,07,23,01,09,9.40
2011,07,23,01,10,9.40
2011,07,23,01,11,9.40
2011,07,23,01,12,9.40
2011,07,23,01,13,9.40
2011,07,23,01,14,9.40
2011,07,23,01,15,9.40
2011,07,23,01,16,9.40
2011,07,23,01,17,9.50
2011,07,23,01,18,9.50
2011,07,23,01,19,9.50
2011,07,23,01,20,9.50
2011,07,23,01,21,9.50
2011,07,23,01,22,9.50
2011,07,23,01,23,9.50
2011,07,23,01,24,9.60
2011,07,23,01,25,9.60
2011,07,23,01,26,9.60
2011,07,23,01,27,9.60
2011,07,23,01,28,9.50
2011,07,23,01,29,9.50
2011,07,23,01,30,9.50
2011,07,23,01,31,9.50
2011,07,23,01,32,9.50
2011,07,23,01,33,9.40
2011,07,23,01,34,9.40
2011,07,23,01,35,9.40
2011,07,23,01,36,9.40
2011,07,23,01,37,9.30
2011,07,23,01,38,9.30
2011,07,23,01,39,9.20
2011,07,23,01,40,9.20
2011,07,23,01,41,9.20
2011,07,23,01,42,9.20
2011,07,23,01,43,9.20
2011,07,23,01,44,9.20
2011,07,23,01,45,9.10
2011,07,23,01,46,9.10
2011,07,23,01,47,9.10
2011,07,23,01,48,9.00
2011,07,23,01,49,9.00
2011,07,23,01,50,8.90
2011,07,23,01,51,8.90
2011,07,23,01,52,8.90
2011,07,23,01,53,8.90
2011,07,23,01,54,8.90
2011,07,23,01,55,8.80
2011,07,23,01,56,8.80
2011,07,23,01,57,8.80
2011,07,23,01,58,8.80
2011,07,23,01,59,8.80
2011,07,23,02,00,8.70
2011,07,23,02,01,8.70
2011,07,23,02,02,8.70
2011,07,23,02,03,8.70
2011,07,23,02,04,8.70
2011,07,23,02,05,8.70
2011,07,23,02,06,8.70
2011,07,23,02,07,8.70
2011,07,23,02,08,8.70
2011,07,23,02,09,8.70
2011,07,23,02,10,8.70
2011,07,23,02,11,8.70
2011,07,23,02,12,8.70
2011,07,23,02,13,8.70
2011,07,23,02,14,8.70
2011,07,23,02,15,8.70
2011,07,23,02,16,8.70
2011,07,23,02,17,8.70
2011,07,23,02,18,8.70
2011,07,23,02,19,8.70
2011,07,23,02,20,8.70
2011,07,23,02,21,8.70
2011,07,23,02,22,8.70
2011,07,23,02,23,8.70
2011,07,23,02,24,8.70
2011,07,23,02,25,8.70
2011,07,23,02,26,8.70
2011,07,23,02,27,8.70
2011,07,23,02,28,8.70
2011,07,23,02,29,8.70
2011,07,23,02,30,8.70
2011,07,23,02,31,8.70
2011,07,23,02,32,8.70
2011,07,23,02,33,8.70
2011,07,23,02,34,8.70
2011,07,23,02,35,8.70
2011,07,23,02,36,8.70
2011,07,23,02,37,8.70
2011,07,23,02,38,8.70
2011,07,23,02,39,8.70
2011,07,23,02,40,8.70
2011,07,23,02,41,8.70
2011,07,23,02,42,8.70
2011,07,23,02,43,8.70
2011,07,23,02,44,8.70
2011,07,23,02,45,8.70
2011,07,23,02,46,8.70
2011,07,23,02,47,8.70
2011,07,23,02,48,8.70
2011,07,23,02,49,8.70
2011,07,23,02,50,8.60
2011,07,23,02,51,8.60
2011,07,23,02,52,8.60
2011,07,23,02,53,8.50
2011,07,23,02,54,8.50
2011,07,23,02,55,8.40
2011,07,23,02,56,8.40
2011,07,23,02,57,8.40
2011,07,23,02,58,8.30
2011,07,23,02,59,8.30
2011,07,23,03,00,8.30
2011,07,23,03,01,8.30
2011,07,23,03,02,8.30
2011,07,23,03,03,8.30
2011,07,23,03,04,8.40
2011,07,23,03,05,8.40
2011,07,23,03,06,8.40
2011,07,23,03,07,8.30
2011,07,23,03,08,8.30
2011,07,23,03,09,8.30
2011,07,23,03,10,8.40
2011,07,23,03,11,8.40
2011,07,23,03,12,8.40
2011,07,23,03,13,8.30
2011,07,23,03,14,8.30
2011,07,23,03,15,8.20
2011,07,23,03,16,8.20
2011,07,23,03,17,8.20
2011,07,23,03,18,8.20
2011,07,23,03,19,8.10
2011,07,23,03,20,8.10
2011,07,23,03,21,8.10
2011,07,23,03,22,8.00
2011,07,23,03,23,8.00
2011,07,23,03,24,8.00
2011,07,23,03,25,8.00
2011,07,23,03,26,7.90
2011,07,23,03,27,7.90
2011,07,23,03,28,7.90
2011,07,23,03,29,7.90
2011,07,23,03,30,7.90
2011,07,23,03,31,7.90
2011,07,23,03,32,7.80
2011,07,23,03,33,7.80
2011,07,23,03,34,7.80
2011,07,23,03,35,7.80
2011,07,23,03,36,7.80
2011,07,23,03,37,7.80
2011,07,23,03,38,7.80
2011,07,23,03,39,7.80
2011,07,23,03,40,7.90
2011,07,23,03,41,7.90
2011,07,23,03,42,7.90
2011,07,23,03,43,7.90
2011,07,23,03,44,7.90
2011,07,23,03,45,7.90
2011,07,23,03,46,7.90
2011,07,23,03,47,7.90
2011,07,23,03,48,7.90
2011,07,23,03,49,7.90
2011,07,23,03,50,8.00
2011,07,23,03,51,8.00
2011,07,23,03,52,8.00
2011,07,23,03,53,8.00
2011,07,23,03,54,8.00
2011,07,23,03,55,7.90
2011,07,23,03,56,7.90
2011,07,23,03,57,7.90
2011,07,23,03,58,7.90
2011,07,23,03,59,7.90
2011,07,23,04,00,7.90
2011,07,23,04,01,7.90
2011,07,23,04,02,7.90
2011,07,23,04,03,7.90
2011,07,23,04,04,7.90
2011,07,23,04,05,7.90
2011,07,23,04,06,7.90
2011,07,23,04,07,7.90
2011,07,23,04,08,8.00
2011,07,23,04,09,8.00
2011,07,23,04,10,8.00
2011,07,23,04,11,8.10
2011,07,23,04,12,8.10
2011,07,23,04,13,8.20
2011,07,23,04,14,8.20
2011,07,23,04,15,8.30
2011,07,23,04,16,8.30
2011,07,23,04,17,8.30
2011,07,23,04,18,8.30
2011,07,23,04,19,8.20
2011,07,23,04,20,8.10
2011,07,23,04,21,8.00
2011,07,23,04,22,7.90
2011,07,23,04,23,7.90
2011,07,23,04,24,7.80
2011,07,23,04,25,7.80
2011,07,23,04,26,7.80
2011,07,23,04,27,7.80
2011,07,23,04,28,7.80
2011,07,23,04,29,7.80
2011,07,23,04,30,7.70
2011,07,23,04,31,7.70
2011,07,23,04,32,7.70
2011,07,23,04,33,7.70
2011,07,23,04,34,7.70
2011,07,23,04,35,7.70
2011,07,23,04,36,7.70
2011,07,23,04,37,7.70
2011,07,23,04,38,7.70
2011,07,23,04,39,7.80
2011,07,23,04,40,7.80
2011,07,23,04,41,7.80
2011,07,23,04,42,7.80
2011,07,23,04,43,7.80
2011,07,23,04,44,7.90
2011,07,23,04,45,7.90
2011,07,23,04,46,7.90
2011,07,23,04,47,7.80
2011,07,23,04,48,7.90
2011,07,23,04,49,7.90
2011,07,23,04,50,7.90
2011,07,23,04,51,7.90
2011,07,23,04,52,7.90
2011,07,23,04,53,7.90
2011,07,23,04,54,7.90
2011,07,23,04,55,7.90
2011,07,23,04,56,7.90
2011,07,23,04,57,7.90
2011,07,23,04,58,7.90
2011,07,23,04,59,7.90
2011,07,23,05,00,7.90
2011,07,23,05,01,8.00
2011,07,23,05,02,7.90
2011,07,23,05,03,7.90
2011,07,23,05,04,7.90
2011,07,23,05,05,7.90
2011,07,23,05,06,7.80
2011,07,23,05,07,7.80
2011,07,23,05,08,7.80
2011,07,23,05,09,7.80
2011,07,23,05,10,7.80
2011,07,23,05,11,7.70
2011,07,23,05,12,7.70
2011,07,23,05,13,7.60
2011,07,23,05,14,7.60
2011,07,23,05,15,7.60
2011,07,23,05,16,7.50
2011,07,23,05,17,7.50
2011,07,23,05,18,7.40
2011,07,23,05,19,7.40
2011,07,23,05,20,7.40
2011,07,23,05,21,7.30
2011,07,23,05,22,7.30
2011,07,23,05,23,7.30
2011,07,23,05,24,7.30
2011,07,23,05,25,7.40
2011,07,23,05,26,7.50
2011,07,23,05,27,7.50
2011,07,23,05,28,7.50
2011,07,23,05,29,7.50
2011,07,23,05,30,7.40
2011,07,23,05,31,7.40
2011,07,23,05,32,7.40
2011,07,23,05,33,7.50
2011,07,23,05,34,7.50
2011,07,23,05,35,7.60
2011,07,23,05,36,7.60
2011,07,23,05,37,7.60
2011,07,23,05,38,7.60
2011,07,23,05,39,7.60
2011,07,23,05,40,7.70
2011,07,23,05,41,7.80
2011,07,23,05,42,7.80
2011,07,23,05,43,7.80
2011,07,23,05,44,7.90
2011,07,23,05,45,7.90
2011,07,23,05,46,7.90
2011,07,23,05,47,7.90
2011,07,23,05,48,7.90
2011,07,23,05,49,7.80
2011,07,23,05,50,7.80
2011,07,23,05,51,7.70
2011,07,23,05,52,7.60
2011,07,23,05,53,7.60
2011,07,23,05,54,7.50
2011,07,23,05,55,7.50
2011,07,23,05,56,7.40
2011,07,23,05,57,7.40
2011,07,23,05,58,7.40
2011,07,23,05,59,7.30
2011,07,23,06,00,7.30
2011,07,23,06,01,7.30
2011,07,23,06,02,7.20
2011,07,23,06,03,7.20
2011,07,23,06,04,7.10
2011,07,23,06,05,7.10
2011,07,23,06,06,7.10
2011,07,23,06,07,7.00
2011,07,23,06,08,7.00
2011,07,23,06,09,7.00
2011,07,23,06,10,7.00
2011,07,23,06,11,7.00
2011,07,23,06,12,7.00
2011,07,23,06,13,7.00
2011,07,23,06,14,7.00
2011,07,23,06,15,7.00
2011,07,23,06,16,7.00
2011,07,23,06,17,7.00
2011,07,23,06,18,7.10
2011,07,23,06,19,7.10
2011,07,23,06,20,7.10
2011,07,23,06,21,7.10
2011,07,23,06,22,7.10
2011,07,23,06,23,7.20
2011,07,23,06,24,7.10
2011,07,23,06,25,7.10
2011,07,23,06,26,7.10
2011,07,23,06,27,7.10
2011,07,23,06,28,7.20
2011,07,23,06,29,7.20
2011,07,23,06,30,7.20
2011,07,23,06,31,7.30
2011,07,23,06,32,7.30
2011,07,23,06,33,7.30
2011,07,23,06,34,7.30
2011,07,23,06,35,7.40
2011,07,23,06,36,7.40
2011,07,23,06,37,7.50
2011,07,23,06,38,7.50
2011,07,23,06,39,7.60
2011,07,23,06,40,7.70
2011,07,23,06,41,7.80
2011,07,23,06,42,7.80
2011,07,23,06,43,7.80
2011,07,23,06,44,7.90
2011,07,23,06,45,8.00
2011,07,23,06,46,8.00
2011,07,23,06,47,8.10
2011,07,23,06,48,8.20
2011,07,23,06,49,8.20
2011,07,23,06,50,8.20
2011,07,23,06,51,8.30
2011,07,23,06,52,8.30
2011,07,23,06,53,8.40
2011,07,23,06,54,8.40
2011,07,23,06,55,8.50
2011,07,23,06,56,8.50
2011,07,23,06,57,8.60
2011,07,23,06,58,8.70
2011,07,23,06,59,8.70
2011,07,23,07,00,8.80
2011,07,23,07,01,8.90
2011,07,23,07,02,8.90
2011,07,23,07,03,9.00
2011,07,23,07,04,9.10
2011,07,23,07,05,9.20
2011,07,23,07,06,9.30
2011,07,23,07,07,9.30
2011,07,23,07,08,9.40
2011,07,23,07,09,9.40
2011,07,23,07,10,9.50
2011,07,23,07,11,9.50
2011,07,23,07,12,9.60
2011,07,23,07,13,9.70
2011,07,23,07,14,9.70
2011,07,23,07,15,9.80
2011,07,23,07,16,9.90
2011,07,23,07,17,9.90
2011,07,23,07,18,9.90
2011,07,23,07,19,10.00
2011,07,23,07,20,10.10
2011,07,23,07,21,10.10
2011,07,23,07,22,10.10
2011,07,23,07,23,10.10
2011,07,23,07,24,10.10
2011,07,23,07,25,10.10
2011,07,23,07,26,10.20
2011,07,23,07,27,10.20
2011,07,23,07,28,10.30
2011,07,23,07,29,10.30
2011,07,23,07,30,10.30
2011,07,23,07,31,10.30
2011,07,23,07,32,10.40
2011,07,23,07,33,10.40
2011,07,23,07,34,10.40
2011,07,23,07,35,10.40
2011,07,23,07,36,10.40
2011,07,23,07,37,10.40
2011,07,23,07,38,10.40
2011,07,23,07,39,10.60
2011,07,23,07,40,10.50
2011,07,23,07,41,10.40
2011,07,23,07,42,10.40
2011,07,23,07,43,10.40
2011,07,23,07,44,10.40
2011,07,23,07,45,10.40
2011,07,23,07,46,10.40
2011,07,23,07,47,10.40
2011,07,23,07,48,10.40
2011,07,23,07,49,10.40
2011,07,23,07,50,10.40
2011,07,23,07,51,10.40
2011,07,23,07,52,10.40
2011,07,23,07,53,10.30
2011,07,23,07,54,10.30
2011,07,23,07,55,10.30
2011,07,23,07,56,10.30
2011,07,23,07,57,10.40
2011,07,23,07,58,10.40
2011,07,23,07,59,10.50
2011,07,23,08,00,10.60
2011,07,23,08,01,10.60
2011,07,23,08,02,10.70
2011,07,23,08,03,10.70
2011,07,23,08,04,10.70
2011,07,23,08,05,10.80
2011,07,23,08,06,10.80
2011,07,23,08,07,10.80
2011,07,23,08,08,10.90
2011,07,23,08,09,10.90
2011,07,23,08,10,10.90
2011,07,23,08,11,11.00
2011,07,23,08,12,11.10
2011,07,23,08,13,11.10
2011,07,23,08,14,11.10
2011,07,23,08,15,11.10
2011,07,23,08,16,11.10
2011,07,23,08,17,11.10
2011,07,23,08,18,11.10
2011,07,23,08,19,11.20
2011,07,23,08,20,11.40
2011,07,23,08,21,11.50
2011,07,23,08,22,11.60
2011,07,23,08,23,11.60
2011,07,23,08,24,11.60
2011,07,23,08,25,11.60
2011,07,23,08,26,11.60
2011,07,23,08,27,11.60
2011,07,23,08,28,11.70
2011,07,23,08,29,11.70
2011,07,23,08,30,11.80
2011,07,23,08,31,11.80
2011,07,23,08,32,11.80
2011,07,23,08,33,11.80
2011,07,23,08,34,11.90
2011,07,23,08,35,12.00
2011,07,23,08,36,12.00
2011,07,23,08,37,12.20
2011,07,23,08,38,12.30
2011,07,23,08,39,12.30
2011,07,23,08,40,12.30
2011,07,23,08,41,12.40
2011,07,23,08,42,12.40
2011,07,23,08,43,12.50
2011,07,23,08,44,12.50
2011,07,23,08,45,12.50
2011,07,23,08,46,12.40
2011,07,23,08,47,12.40
2011,07,23,08,48,12.50
2011,07,23,08,49,12.50
2011,07,23,08,50,12.40
2011,07,23,08,51,12.40
2011,07,23,08,52,12.40
2011,07,23,08,53,12.30
2011,07,23,08,54,12.30
2011,07,23,08,55,12.40
2011,07,23,08,56,12.40
2011,07,23,08,57,12.40
2011,07,23,08,58,12.40
2011,07,23,08,59,12.30
2011,07,23,09,00,12.30
2011,07,23,09,01,12.30
2011,07,23,09,02,12.30
2011,07,23,09,03,12.30
2011,07,23,09,04,12.40
2011,07,23,09,05,12.40
2011,07,23,09,06,12.40
2011,07,23,09,07,12.40
2011,07,23,09,08,12.50
2011,07,23,09,09,12.40
2011,07,23,09,10,12.40
2011,07,23,09,11,12.30
2011,07,23,09,12,12.20
2011,07,23,09,13,12.10
2011,07,23,09,14,12.00
2011,07,23,09,15,11.90
2011,07,23,09,16,11.80
2011,07,23,09,17,11.80
2011,07,23,09,18,11.90
2011,07,23,09,19,12.00
2011,07,23,09,20,12.10
2011,07,23,09,21,12.30
2011,07,23,09,22,12.40
2011,07,23,09,23,12.50
2011,07,23,09,24,12.50
2011,07,23,09,25,12.70
2011,07,23,09,26,12.80
2011,07,23,09,27,12.90
2011,07,23,09,28,13.00
2011,07,23,09,29,13.10
2011,07,23,09,30,13.30
2011,07,23,09,31,13.40
2011,07,23,09,32,13.50
2011,07,23,09,33,13.40
2011,07,23,09,34,13.30
2011,07,23,09,35,13.30
2011,07,23,09,36,13.20
2011,07,23,09,37,13.30
2011,07,23,09,38,13.40
2011,07,23,09,39,13.50
2011,07,23,09,40,13.50
2011,07,23,09,41,13.40
2011,07,23,09,42,13.40
2011,07,23,09,43,13.20
2011,07,23,09,44,12.90
2011,07,23,09,45,12.80
2011,07,23,09,46,12.80
2011,07,23,09,47,12.80
2011,07,23,09,48,12.70
2011,07,23,09,49,12.80
2011,07,23,09,50,12.80
2011,07,23,09,51,12.80
2011,07,23,09,52,12.80
2011,07,23,09,53,12.80
2011,07,23,09,54,12.80
2011,07,23,09,55,13.00
2011,07,23,09,56,13.10
2011,07,23,09,57,13.30
2011,07,23,09,58,13.40
2011,07,23,09,59,13.50
2011,07,23,10,00,13.60
2011,07,23,10,01,13.60
2011,07,23,10,02,13.70
2011,07,23,10,03,13.70
2011,07,23,10,04,13.70
2011,07,23,10,05,13.70
2011,07,23,10,06,13.80
2011,07,23,10,07,13.90
2011,07,23,10,08,13.90
2011,07,23,10,09,14.00
2011,07,23,10,10,14.20
2011,07,23,10,11,14.40
2011,07,23,10,12,14.50
2011,07,23,10,13,14.60
2011,07,23,10,14,14.60
2011,07,23,10,15,14.50
2011,07,23,10,16,14.40
2011,07,23,10,17,14.20
2011,07,23,10,18,14.20
2011,07,23,10,19,14.20
2011,07,23,10,20,14.20
2011,07,23,10,21,14.30
2011,07,23,10,22,14.30
2011,07,23,10,23,14.40
2011,07,23,10,24,14.40
2011,07,23,10,25,14.40
2011,07,23,10,26,14.50
2011,07,23,10,27,14.50
2011,07,23,10,28,14.60
2011,07,23,10,29,14.70
2011,07,23,10,30,14.80
2011,07,23,10,31,14.70
2011,07,23,10,32,14.80
2011,07,23,10,33,14.80
2011,07,23,10,34,14.80
2011,07,23,10,35,14.90
2011,07,23,10,36,15.00
2011,07,23,10,37,15.10
2011,07,23,10,38,15.10
2011,07,23,10,39,15.10
2011,07,23,10,40,15.10
2011,07,23,10,41,15.00
2011,07,23,10,42,14.90
2011,07,23,10,43,15.00
2011,07,23,10,44,15.10
2011,07,23,10,45,15.20
2011,07,23,10,46,15.10
2011,07,23,10,47,14.90
2011,07,23,10,48,14.70
2011,07,23,10,49,14.70
2011,07,23,10,50,14.60
2011,07,23,10,51,14.50
2011,07,23,10,52,14.40
2011,07,23,10,53,14.40
2011,07,23,10,54,14.30
2011,07,23,10,55,14.20
2011,07,23,10,56,14.30
2011,07,23,10,57,14.40
2011,07,23,10,58,14.40
2011,07,23,10,59,14.40
2011,07,23,11,00,14.50
2011,07,23,11,01,14.50
2011,07,23,11,02,14.50
2011,07,23,11,03,14.40
2011,07,23,11,04,14.40
2011,07,23,11,05,14.50
2011,07,23,11,06,14.60
2011,07,23,11,07,14.70
2011,07,23,11,08,14.70
2011,07,23,11,09,14.80
2011,07,23,11,10,15.00
2011,07,23,11,11,15.10
2011,07,23,11,12,15.10
2011,07,23,11,13,15.10
2011,07,23,11,14,15.10
2011,07,23,11,15,15.10
2011,07,23,11,16,15.10
2011,07,23,11,17,15.10
2011,07,23,11,18,15.00
2011,07,23,11,19,15.00
2011,07,23,11,20,14.80
2011,07,23,11,21,14.80
2011,07,23,11,22,14.70
2011,07,23,11,23,14.80
2011,07,23,11,24,14.70
2011,07,23,11,25,14.60
2011,07,23,11,26,14.60
2011,07,23,11,27,14.60
2011,07,23,11,28,14.80
2011,07,23,11,29,15.10
2011,07,23,11,30,15.30
2011,07,23,11,31,15.50
2011,07,23,11,32,15.60
2011,07,23,11,33,15.70
2011,07,23,11,34,15.50
2011,07,23,11,35,15.30
2011,07,23,11,36,15.20
2011,07,23,11,37,15.10
2011,07,23,11,38,15.10
2011,07,23,11,39,15.10
2011,07,23,11,40,15.00
2011,07,23,11,41,14.80
2011,07,23,11,42,14.60
2011,07,23,11,43,14.60
2011,07,23,11,44,14.50
2011,07,23,11,45,14.60
2011,07,23,11,46,14.70
2011,07,23,11,47,14.90
2011,07,23,11,48,15.10
2011,07,23,11,49,15.30
2011,07,23,11,50,15.40
2011,07,23,11,51,15.70
2011,07,23,11,52,15.80
2011,07,23,11,53,15.90
2011,07,23,11,54,16.10
2011,07,23,11,55,16.30
2011,07,23,11,56,16.50
2011,07,23,11,57,16.80
2011,07,23,11,58,16.90
2011,07,23,11,59,16.90
2011,07,23,12,00,17.00
2011,07,23,12,01,17.00
2011,07,23,12,02,17.00
2011,07,23,12,03,17.00
2011,07,23,12,04,17.00
2011,07,23,12,05,16.90
2011,07,23,12,06,17.00
2011,07,23,12,07,17.20
2011,07,23,12,08,17.30
2011,07,23,12,09,17.30
2011,07,23,12,10,17.30
2011,07,23,12,11,17.30
2011,07,23,12,12,17.30
2011,07,23,12,13,17.30
2011,07,23,12,14,17.30
2011,07,23,12,15,17.20
2011,07,23,12,16,17.10
2011,07,23,12,17,17.30
2011,07,23,12,18,17.20
2011,07,23,12,19,17.00
2011,07,23,12,20,17.00
2011,07,23,12,21,16.90
2011,07,23,12,22,16.70
2011,07,23,12,23,16.70
2011,07,23,12,24,16.50
2011,07,23,12,25,16.40
2011,07,23,12,26,16.50
2011,07,23,12,27,16.50
2011,07,23,12,28,16.40
2011,07,23,12,29,16.50
2011,07,23,12,30,16.50
2011,07,23,12,31,16.30
2011,07,23,12,32,16.10
2011,07,23,12,33,16.00
2011,07,23,12,34,16.10
2011,07,23,12,35,16.20
2011,07,23,12,36,16.30
2011,07,23,12,37,16.40
2011,07,23,12,38,16.50
2011,07,23,12,39,16.60
2011,07,23,12,40,16.70
2011,07,23,12,41,16.70
2011,07,23,12,42,16.80
2011,07,23,12,43,16.80
2011,07,23,12,44,16.90
2011,07,23,12,45,16.90
2011,07,23,12,46,16.90
2011,07,23,12,47,16.80
2011,07,23,12,48,16.90
2011,07,23,12,49,17.00
2011,07,23,12,50,17.20
2011,07,23,12,51,17.20
2011,07,23,12,52,17.10
2011,07,23,12,53,17.00
2011,07,23,12,54,16.80
2011,07,23,12,55,16.80
2011,07,23,12,56,16.80
2011,07,23,12,57,16.90
2011,07,23,12,58,16.60
2011,07,23,12,59,16.30
2011,07,23,13,00,16.30
2011,07,23,13,01,16.20
2011,07,23,13,02,16.10
2011,07,23,13,03,16.10
2011,07,23,13,04,16.00
2011,07,23,13,05,16.00
2011,07,23,13,06,16.30
2011,07,23,13,07,16.40
2011,07,23,13,08,16.60
2011,07,23,13,09,16.80
2011,07,23,13,10,16.90
2011,07,23,13,11,17.10
2011,07,23,13,12,17.00
2011,07,23,13,13,17.00
2011,07,23,13,14,16.90
2011,07,23,13,15,16.90
2011,07,23,13,16,16.80
2011,07,23,13,17,16.60
2011,07,23,13,18,16.40
2011,07,23,13,19,16.30
2011,07,23,13,20,16.20
2011,07,23,13,21,16.10
2011,07,23,13,22,16.20
2011,07,23,13,23,16.40
2011,07,23,13,24,16.60
2011,07,23,13,25,16.80
2011,07,23,13,26,16.90
2011,07,23,13,27,16.90
2011,07,23,13,28,16.80
2011,07,23,13,29,16.70
2011,07,23,13,30,16.40
2011,07,23,13,31,16.30
2011,07,23,13,32,16.40
2011,07,23,13,33,16.40
2011,07,23,13,34,16.60
2011,07,23,13,35,16.80
2011,07,23,13,36,17.00
2011,07,23,13,37,17.00
2011,07,23,13,38,16.80
2011,07,23,13,39,16.80
2011,07,23,13,40,17.00
2011,07,23,13,41,17.10
2011,07,23,13,42,17.40
2011,07,23,13,43,17.70
2011,07,23,13,44,18.00
2011,07,23,13,45,18.10
2011,07,23,13,46,18.20
2011,07,23,13,47,18.40
2011,07,23,13,48,18.40
2011,07,23,13,49,18.30
2011,07,23,13,50,18.10
2011,07,23,13,51,17.80
2011,07,23,13,52,17.50
2011,07,23,13,53,17.50
2011,07,23,13,54,17.40
2011,07,23,13,55,17.20
2011,07,23,13,56,17.10
2011,07,23,13,57,17.00
2011,07,23,13,58,17.00
2011,07,23,13,59,17.00
2011,07,23,14,00,17.10
2011,07,23,14,01,17.30
2011,07,23,14,02,17.30
2011,07,23,14,03,17.30
2011,07,23,14,04,17.30
2011,07,23,14,05,17.30
2011,07,23,14,06,17.20
2011,07,23,14,07,17.10
2011,07,23,14,08,17.00
2011,07,23,14,09,17.00
2011,07,23,14,10,17.20
2011,07,23,14,11,17.30
2011,07,23,14,12,17.40
2011,07,23,14,13,17.40
2011,07,23,14,14,17.30
2011,07,23,14,15,17.40
2011,07,23,14,16,17.50
2011,07,23,14,17,17.70
2011,07,23,14,18,17.70
2011,07,23,14,19,17.60
2011,07,23,14,20,17.50
2011,07,23,14,21,17.70
2011,07,23,14,22,17.60
2011,07,23,14,23,17.50
2011,07,23,14,24,17.60
2011,07,23,14,25,17.40
2011,07,23,14,26,17.40
2011,07,23,14,27,17.40
2011,07,23,14,28,17.50
2011,07,23,14,29,17.70
2011,07,23,14,30,17.80
2011,07,23,14,31,17.90
2011,07,23,14,32,18.00
2011,07,23,14,33,18.20
2011,07,23,14,34,18.30
2011,07,23,14,35,18.50
2011,07,23,14,36,18.50
2011,07,23,14,37,18.50
2011,07,23,14,38,18.50
2011,07,23,14,39,18.50
2011,07,23,14,40,18.40
2011,07,23,14,41,18.20
2011,07,23,14,42,18.10
2011,07,23,14,43,18.00
2011,07,23,14,44,18.10
2011,07,23,14,45,18.20
2011,07,23,14,46,18.30
2011,07,23,14,47,18.30
2011,07,23,14,48,18.20
2011,07,23,14,49,18.20
2011,07,23,14,50,18.20
2011,07,23,14,51,18.10
2011,07,23,14,52,18.00
2011,07,23,14,53,17.70
2011,07,23,14,54,17.60
2011,07,23,14,55,17.40
2011,07,23,14,56,17.20
2011,07,23,14,57,17.10
2011,07,23,14,58,17.10
2011,07,23,14,59,17.10
2011,07,23,15,00,17.30
2011,07,23,15,01,17.30
2011,07,23,15,02,17.40
2011,07,23,15,03,17.40
2011,07,23,15,04,17.50
2011,07,23,15,05,17.50
2011,07,23,15,06,17.60
2011,07,23,15,07,17.80
2011,07,23,15,08,18.10
2011,07,23,15,09,18.20
2011,07,23,15,10,18.40
2011,07,23,15,11,18.40
2011,07,23,15,12,18.50
2011,07,23,15,13,18.70
2011,07,23,15,14,18.90
2011,07,23,15,15,18.90
2011,07,23,15,16,18.90
2011,07,23,15,17,18.90
2011,07,23,15,18,18.80
2011,07,23,15,19,18.90
2011,07,23,15,20,18.90
2011,07,23,15,21,18.90
2011,07,23,15,22,18.90
2011,07,23,15,23,19.10
2011,07,23,15,24,19.20
2011,07,23,15,25,19.30
2011,07,23,15,26,19.30
2011,07,23,15,27,19.40
2011,07,23,15,28,19.50
2011,07,23,15,29,19.60
2011,07,23,15,30,19.60
2011,07,23,15,31,19.70
2011,07,23,15,32,19.70
2011,07,23,15,33,19.70
2011,07,23,15,34,19.80
2011,07,23,15,35,19.90
2011,07,23,15,36,20.00
2011,07,23,15,37,20.00
2011,07,23,15,38,19.90
2011,07,23,15,39,19.50
2011,07,23,15,40,19.30
2011,07,23,15,41,19.30
2011,07,23,15,42,19.10
2011,07,23,15,43,19.00
2011,07,23,15,44,18.80
2011,07,23,15,45,18.90
2011,07,23,15,46,19.00
2011,07,23,15,47,19.10
2011,07,23,15,48,19.10
2011,07,23,15,49,19.10
2011,07,23,15,50,19.30
2011,07,23,15,51,19.40
2011,07,23,15,52,19.50
2011,07,23,15,53,19.60
2011,07,23,15,54,19.50
2011,07,23,15,55,19.60
2011,07,23,15,56,19.60
2011,07,23,15,57,19.50
2011,07,23,15,58,19.20
2011,07,23,15,59,18.90
2011,07,23,16,00,18.60
2011,07,23,16,01,18.60
2011,07,23,16,02,18.70
2011,07,23,16,03,18.80
2011,07,23,16,04,18.80
2011,07,23,16,05,18.60
2011,07,23,16,06,18.50
2011,07,23,16,07,18.50
2011,07,23,16,08,18.50
2011,07,23,16,09,18.40
2011,07,23,16,10,18.40
2011,07,23,16,11,18.50
2011,07,23,16,12,18.70
2011,07,23,16,13,18.90
2011,07,23,16,14,19.00
2011,07,23,16,15,18.90
2011,07,23,16,16,18.90
2011,07,23,16,17,19.00
2011,07,23,16,18,19.10
2011,07,23,16,19,19.10
2011,07,23,16,20,19.00
2011,07,23,16,21,18.90
2011,07,23,16,22,18.80
2011,07,23,16,23,18.70
2011,07,23,16,24,18.80
2011,07,23,16,25,18.80
2011,07,23,16,26,18.90
2011,07,23,16,27,19.00
2011,07,23,16,28,19.10
2011,07,23,16,29,19.30
2011,07,23,16,30,19.40
2011,07,23,16,31,19.50
2011,07,23,16,32,19.70
2011,07,23,16,33,19.80
2011,07,23,16,34,19.80
2011,07,23,16,35,19.80
2011,07,23,16,36,19.80
2011,07,23,16,37,19.70
2011,07,23,16,38,19.60
2011,07,23,16,39,19.50
2011,07,23,16,40,19.40
2011,07,23,16,41,19.40
2011,07,23,16,42,19.50
2011,07,23,16,43,19.60
2011,07,23,16,44,19.60
2011,07,23,16,45,19.50
2011,07,23,16,46,19.50
2011,07,23,16,47,19.40
2011,07,23,16,48,19.40
2011,07,23,16,49,19.30
2011,07,23,16,50,19.20
2011,07,23,16,51,19.20
2011,07,23,16,52,19.10
2011,07,23,16,53,19.10
2011,07,23,16,54,19.10
2011,07,23,16,55,19.10
2011,07,23,16,56,19.10
2011,07,23,16,57,19.10
2011,07,23,16,58,19.10
2011,07,23,16,59,19.10
2011,07,23,17,00,19.10
2011,07,23,17,01,19.20
2011,07,23,17,02,19.30
2011,07,23,17,03,19.60
2011,07,23,17,04,19.70
2011,07,23,17,05,19.80
2011,07,23,17,06,19.80
2011,07,23,17,07,19.70
2011,07,23,17,08,19.80
2011,07,23,17,09,19.80
2011,07,23,17,10,19.80
2011,07,23,17,11,19.90
2011,07,23,17,12,19.90
2011,07,23,17,13,20.00
2011,07,23,17,14,20.10
2011,07,23,17,15,20.20
2011,07,23,17,16,20.20
2011,07,23,17,17,20.20
2011,07,23,17,18,20.30
2011,07,23,17,19,20.40
2011,07,23,17,20,20.40
2011,07,23,17,21,20.40
2011,07,23,17,22,20.30
2011,07,23,17,23,20.30
2011,07,23,17,24,20.20
2011,07,23,17,25,20.10
2011,07,23,17,26,20.10
2011,07,23,17,27,20.10
2011,07,23,17,28,20.20
2011,07,23,17,29,20.20
2011,07,23,17,30,20.20
2011,07,23,17,31,20.20
2011,07,23,17,32,20.30
2011,07,23,17,33,20.30
2011,07,23,17,34,20.20
2011,07,23,17,35,20.20
2011,07,23,17,36,20.20